This is the latest recevied weather packets stored in our database for station/object N8TWM-13. If no packets are shown the sender has not sent any weather packets the latest 10 day(s).
| Time | Temp. | Humidity | Pressure | Rain* | Wind** | Luminosity | Snow |
|---|---|---|---|---|---|---|---|
| 1778045974 | 7.78° C | 97% | 1008 hPa | 3.05 mm | - | 0 W/m² | - |
| 1778045673 | 7.78° C | 97% | 1008.1 hPa | 1.27 mm | - | 0 W/m² | - |
| 1778045371 | 7.78° C | 97% | 1008 hPa | 1.78 mm | - | 0 W/m² | - |
| 1778045070 | 8.33° C | 97% | 1008 hPa | 3.56 mm | - | 0 W/m² | - |
| 1778044767 | 8.33° C | 97% | 1008 hPa | 3.05 mm | - | 0 W/m² | - |
| 1778044463 | 8.33° C | 97% | 1008.5 hPa | 1.27 mm | - | 0 W/m² | - |
| 1778044161 | 8.33° C | 97% | 1008.3 hPa | 3.05 mm | - | 0 W/m² | - |
| 1778043858 | 8.33° C | 97% | 1008.3 hPa | 1.78 mm | - | 0 W/m² | - |
| 1778043555 | 8.33° C | 97% | 1008.4 hPa | 1.27 mm | - | 0 W/m² | - |
| 1778043252 | 8.33° C | 97% | 1008.4 hPa | 3.05 mm | - | 0 W/m² | - |
| 1778042949 | 8.33° C | 97% | 1008.1 hPa | 3.05 mm | - | 0 W/m² | - |
| 1778042646 | 8.33° C | 97% | 1008.5 hPa | 1.27 mm | - | 0 W/m² | - |
| 1778042343 | 8.33° C | 97% | 1008.1 hPa | 3.05 mm | - | 0 W/m² | - |
| 1778042041 | 8.33° C | 97% | 1008.3 hPa | 1.78 mm | - | 0 W/m² | - |
| 1778041739 | 8.89° C | 97% | 1008.3 hPa | 0 mm | - | 0 W/m² | - |
| 1778041437 | 8.89° C | 97% | 1008 hPa | 1.27 mm | - | 0 W/m² | - |
| 1778041135 | 8.89° C | 97% | 1008 hPa | 1.27 mm | - | 0 W/m² | - |
| 1778040832 | 8.33° C | 97% | 1008.1 hPa | 1.78 mm | - | 0 W/m² | - |
| 1778040530 | 8.89° C | 97% | 1008.3 hPa | 1.78 mm | - | 0 W/m² | - |
| 1778040227 | 8.89° C | 97% | 1008.3 hPa | 3.05 mm | - | 0 W/m² | - |
| 1778039923 | 8.89° C | 97% | 1008.6 hPa | 1.27 mm | - | 0 W/m² | - |
| 1778039621 | 8.89° C | 97% | 1008.5 hPa | 1.78 mm | - | 0 W/m² | - |
| 1778039318 | 8.89° C | 97% | 1008.5 hPa | 3.05 mm | - | 0 W/m² | - |
| 1778039015 | 8.89° C | 97% | 1008.7 hPa | 3.05 mm | - | 0 W/m² | - |
| 1778038711 | 8.89° C | 97% | 1008.8 hPa | 3.56 mm | - | 0 W/m² | - |
* Rain latest hour (hover to see other rain measurements)
** Current wind speed in m/s (hover to see current wind gust speed)